FJL865 OPKC-OPIS

Flight info

Callsign FJL865
Flight time 1h 44m
Altitude 39000
Route BADUL J112 MOLTA J142 MATIN/N0449F380 J121 INDEK
Aircraft A20N/M-SDE2E3FGHIRWXY/LB1

Departure

Time 2026-04-28 08:28
Airport Jinnah International Airport (OPKC)

Arrival

Time 2026-04-28 10:12
Airport Islamabad International Airport (OPIS)
Time Latitude Longitude Altitude Speed Heading
2026-04-28 08:02 24.90312 67.16907 92 ft 0 kts 164°
2026-04-28 08:10 24.90321 67.16904 99 ft 3 kts 164°
2026-04-28 08:11 24.90342 67.16897 100 ft 3 kts 164°
2026-04-28 08:11 24.90364 67.16891 100 ft 3 kts 164°
2026-04-28 08:11 24.90384 67.16885 99 ft 2 kts 159°
2026-04-28 08:11 24.90398 67.16877 99 ft 2 kts 134°
2026-04-28 08:12 24.90405 67.16863 101 ft 2 kts 90°
2026-04-28 08:12 24.90405 67.16858 101 ft 0 kts 77°
2026-04-28 08:25 24.90409 67.16877 101 ft 8 kts 77°
2026-04-28 08:25 24.90446 67.17007 100 ft 26 kts 53°
2026-04-28 08:26 24.90722 67.16930 107 ft 24 kts 276°
2026-04-28 08:26 24.90658 67.16630 105 ft 72 kts 255°
2026-04-28 08:26 24.90470 67.15875 105 ft 130 kts 254°
2026-04-28 08:26 24.90201 67.14788 340 ft 156 kts 254°
2026-04-28 08:27 24.89892 67.13551 689 ft 181 kts 251°
2026-04-28 08:27 24.89528 67.12110 502 ft 210 kts 253°
2026-04-28 08:27 24.89133 67.10509 356 ft 220 kts 254°
2026-04-28 08:27 24.88728 67.08856 576 ft 228 kts 254°
2026-04-28 08:28 24.88316 67.07174 1148 ft 225 kts 255°
2026-04-28 08:28 24.87913 67.05545 1921 ft 220 kts 255°
2026-04-28 08:28 24.87515 67.03892 2388 ft 225 kts 265°
2026-04-28 08:28 24.87979 67.02240 2721 ft 239 kts 307°
2026-04-28 08:29 24.89414 67.01211 3026 ft 261 kts 335°
2026-04-28 08:29 24.91284 67.00965 3593 ft 280 kts
2026-04-28 08:29 24.93106 67.01719 4513 ft 286 kts 31°
2026-04-28 08:29 24.94510 67.03291 5305 ft 294 kts 54°
2026-04-28 08:30 24.95533 67.05241 6142 ft 295 kts 59°
2026-04-28 08:30 24.96533 67.07244 6861 ft 301 kts 58°
2026-04-28 08:30 24.97626 67.09212 7560 ft 304 kts 54°
2026-04-28 08:30 24.98817 67.11163 7895 ft 308 kts 52°
2026-04-28 08:31 25.00057 67.13077 8032 ft 306 kts 51°
2026-04-28 08:31 25.01305 67.14952 8070 ft 307 kts 51°
2026-04-28 08:31 25.02571 67.16838 8072 ft 305 kts 51°
2026-04-28 08:31 25.03831 67.18717 8074 ft 305 kts 51°
2026-04-28 08:32 25.05096 67.20606 8189 ft 309 kts 51°
2026-04-28 08:32 25.06381 67.22530 8795 ft 311 kts 51°
2026-04-28 08:32 25.07663 67.24453 9640 ft 311 kts 51°
2026-04-28 08:32 25.08967 67.26405 10171 ft 324 kts 51°
2026-04-28 08:33 25.10353 67.28481 10391 ft 346 kts 51°
2026-04-28 08:33 25.11822 67.30684 10665 ft 364 kts 52°
2026-04-28 08:33 25.13334 67.32957 11280 ft 369 kts 52°
2026-04-28 08:33 25.14854 67.35247 12004 ft 372 kts 52°
2026-04-28 08:34 25.16391 67.37563 12672 ft 376 kts 52°
2026-04-28 08:34 25.17948 67.39906 13369 ft 380 kts 52°
2026-04-28 08:34 25.19518 67.42271 13987 ft 384 kts 52°
2026-04-28 08:34 25.21083 67.44630 14604 ft 387 kts 52°
2026-04-28 08:35 25.22740 67.46966 15253 ft 388 kts 45°
2026-04-28 08:35 25.24682 67.49023 15854 ft 389 kts 36°
2026-04-28 08:35 25.26785 67.50920 16506 ft 391 kts 36°
2026-04-28 08:35 25.28894 67.52838 17115 ft 394 kts 36°
2026-04-28 08:36 25.31017 67.54777 17724 ft 398 kts 36°
2026-04-28 08:36 25.33153 67.56732 18292 ft 401 kts 36°
2026-04-28 08:36 25.35315 67.58711 18801 ft 404 kts 36°
2026-04-28 08:36 25.37488 67.60702 19340 ft 407 kts 36°
2026-04-28 08:37 25.39678 67.62709 19853 ft 410 kts 35°
2026-04-28 08:37 25.41883 67.64731 20396 ft 413 kts 35°
2026-04-28 08:37 25.44102 67.66767 20914 ft 416 kts 35°
2026-04-28 08:37 25.46339 67.68819 21427 ft 419 kts 35°
2026-04-28 08:38 25.48593 67.70889 21951 ft 422 kts 35°
2026-04-28 08:38 25.50862 67.72974 22444 ft 426 kts 34°
2026-04-28 08:38 25.53155 67.75081 22954 ft 429 kts 34°
2026-04-28 08:38 25.55462 67.77201 23447 ft 432 kts 34°
2026-04-28 08:39 25.57784 67.79338 23831 ft 436 kts 34°
2026-04-28 08:39 25.60125 67.81494 24263 ft 438 kts 34°
2026-04-28 08:39 25.62448 67.83634 24666 ft 441 kts 34°
2026-04-28 08:39 25.64817 67.85815 25056 ft 445 kts 34°
2026-04-28 08:40 25.67208 67.88020 25457 ft 447 kts 34°
2026-04-28 08:40 25.69605 67.90229 25863 ft 450 kts 34°
2026-04-28 08:40 25.72022 67.92461 26266 ft 452 kts 34°
2026-04-28 08:40 25.74419 67.94672 26589 ft 456 kts 34°
2026-04-28 08:41 25.76902 67.96965 26968 ft 459 kts 34°
2026-04-28 08:41 25.79367 67.99244 27335 ft 462 kts 34°
2026-04-28 08:41 25.81844 68.01534 27709 ft 464 kts 34°
2026-04-28 08:41 25.84333 68.03837 28057 ft 467 kts 34°
2026-04-28 08:42 25.86838 68.06157 28397 ft 470 kts 34°
2026-04-28 08:42 25.89347 68.08481 28729 ft 472 kts 34°
2026-04-28 08:42 25.91877 68.10825 29066 ft 474 kts 34°
2026-04-28 08:42 25.94420 68.13182 29388 ft 477 kts 34°
2026-04-28 08:43 25.96974 68.15552 29703 ft 479 kts 34°
2026-04-28 08:43 25.99533 68.17926 29992 ft 481 kts 34°
2026-04-28 08:43 26.02109 68.20320 30311 ft 482 kts 34°
2026-04-28 08:43 26.04688 68.22717 30594 ft 484 kts 34°
2026-04-28 08:44 26.07275 68.25123 30933 ft 485 kts 34°
2026-04-28 08:44 26.09823 68.27495 31312 ft 484 kts 34°
2026-04-28 08:44 26.12395 68.29891 31705 ft 482 kts 34°
2026-04-28 08:44 26.14968 68.32289 32088 ft 481 kts 34°
2026-04-28 08:45 26.17565 68.34710 32456 ft 480 kts 34°
2026-04-28 08:45 26.20090 68.37066 32798 ft 479 kts 34°
2026-04-28 08:45 26.22655 68.39452 33131 ft 477 kts 33°
2026-04-28 08:45 26.25258 68.41717 33444 ft 475 kts 31°
2026-04-28 08:46 26.27910 68.43933 33721 ft 473 kts 31°
2026-04-28 08:46 26.30542 68.46123 33957 ft 473 kts 31°
2026-04-28 08:46 26.33170 68.48326 34168 ft 473 kts 31°
2026-04-28 08:46 26.35758 68.50512 34370 ft 473 kts 31°
2026-04-28 08:47 26.38375 68.52734 34585 ft 472 kts 31°
2026-04-28 08:47 26.40985 68.54955 34786 ft 472 kts 31°
2026-04-28 08:47 26.43595 68.57179 34985 ft 472 kts 31°
2026-04-28 08:47 26.46214 68.59413 35175 ft 472 kts 31°
2026-04-28 08:48 26.48822 68.61638 35372 ft 471 kts 31°
2026-04-28 08:48 26.51426 68.63861 35569 ft 471 kts 31°
2026-04-28 08:48 26.54031 68.66085 35755 ft 471 kts 30°
2026-04-28 08:48 26.56635 68.68311 35944 ft 471 kts 30°
2026-04-28 08:49 26.59236 68.70535 36148 ft 471 kts 30°
2026-04-28 08:49 26.61839 68.72761 36327 ft 470 kts 30°
2026-04-28 08:49 26.64443 68.74980 36513 ft 470 kts 30°
2026-04-28 08:49 26.67043 68.77191 36704 ft 470 kts 30°
2026-04-28 08:50 26.69645 68.79405 36880 ft 469 kts 30°
2026-04-28 08:50 26.72242 68.81616 37038 ft 470 kts 30°
2026-04-28 08:50 26.74842 68.83833 37210 ft 469 kts 30°
2026-04-28 08:50 26.77400 68.86015 37376 ft 469 kts 29°
2026-04-28 08:51 26.80031 68.88262 37541 ft 469 kts 29°
2026-04-28 08:51 26.82590 68.90448 37690 ft 469 kts 29°
2026-04-28 08:51 26.85184 68.92666 37847 ft 469 kts 29°
2026-04-28 08:51 26.87776 68.94883 38010 ft 469 kts 29°
2026-04-28 08:52 26.90373 68.97106 38147 ft 469 kts 29°
2026-04-28 08:52 26.92965 68.99327 38288 ft 468 kts 29°
2026-04-28 08:52 26.94676 69.00793 38365 ft 468 kts 29°
2026-04-28 08:52 26.97267 69.03014 38478 ft 468 kts 29°
2026-04-28 08:53 26.99853 69.05232 38569 ft 468 kts 29°
2026-04-28 08:53 27.05018 69.09666 38588 ft 468 kts 29°
2026-04-28 08:54 27.10189 69.14110 38584 ft 467 kts 29°
2026-04-28 08:54 27.15356 69.18557 38588 ft 468 kts 29°
2026-04-28 08:55 27.20523 69.23008 38589 ft 468 kts 29°
2026-04-28 08:55 27.25691 69.27466 38597 ft 468 kts 29°
2026-04-28 08:56 27.30839 69.31980 38601 ft 469 kts 30°
2026-04-28 08:56 27.35951 69.36552 38602 ft 470 kts 30°
2026-04-28 08:57 27.41040 69.41096 38609 ft 469 kts 30°
2026-04-28 08:57 27.46164 69.45666 38612 ft 469 kts 30°
2026-04-28 08:58 27.51282 69.50235 38614 ft 469 kts 30°
2026-04-28 08:58 27.56399 69.54810 38617 ft 469 kts 30°
2026-04-28 08:59 27.61505 69.59381 38624 ft 469 kts 30°
2026-04-28 08:59 27.66581 69.63930 38624 ft 468 kts 30°
2026-04-28 09:00 27.71685 69.68509 38624 ft 468 kts 30°
2026-04-28 09:00 27.76779 69.73085 38627 ft 468 kts 30°
2026-04-28 09:01 27.81878 69.77672 38631 ft 467 kts 30°
2026-04-28 09:01 27.86963 69.82251 38633 ft 467 kts 30°
2026-04-28 09:02 27.92051 69.86839 38630 ft 467 kts 30°
2026-04-28 09:02 27.97131 69.91426 38631 ft 467 kts 30°
2026-04-28 09:03 28.02210 69.96018 38634 ft 468 kts 30°
2026-04-28 09:03 28.07273 70.00600 38622 ft 468 kts 30°
2026-04-28 09:04 28.12356 70.05207 38635 ft 468 kts 30°
2026-04-28 09:04 28.17446 70.09826 38630 ft 469 kts 30°
2026-04-28 09:05 28.22540 70.14453 38633 ft 469 kts 30°
2026-04-28 09:05 28.27647 70.19099 38645 ft 470 kts 30°
2026-04-28 09:06 28.32747 70.23744 38642 ft 471 kts 31°
2026-04-28 09:06 28.37732 70.28612 38655 ft 479 kts 39°
2026-04-28 09:07 28.42272 70.34188 38662 ft 481 kts 39°
2026-04-28 09:07 28.46833 70.39758 38669 ft 481 kts 39°
2026-04-28 09:08 28.51363 70.45302 38674 ft 482 kts 39°
2026-04-28 09:08 28.55918 70.50892 38662 ft 480 kts 39°
2026-04-28 09:09 28.60457 70.56469 38656 ft 480 kts 39°
2026-04-28 09:09 28.64995 70.62051 38659 ft 480 kts 40°
2026-04-28 09:10 28.69519 70.67625 38667 ft 479 kts 40°
2026-04-28 09:10 28.74044 70.73206 38666 ft 480 kts 40°
2026-04-28 09:11 28.78576 70.78805 38672 ft 480 kts 40°
2026-04-28 09:11 28.83097 70.84399 38677 ft 480 kts 40°
2026-04-28 09:12 28.87618 70.90000 38681 ft 480 kts 40°
2026-04-28 09:12 28.92143 70.95612 38675 ft 480 kts 40°
2026-04-28 09:13 28.96658 71.01222 38680 ft 480 kts 40°
2026-04-28 09:13 29.01148 71.06807 38681 ft 480 kts 40°
2026-04-28 09:14 29.05665 71.12434 38686 ft 480 kts 40°
2026-04-28 09:14 29.10174 71.18058 38690 ft 479 kts 41°
2026-04-28 09:15 29.14675 71.23681 38691 ft 479 kts 41°
2026-04-28 09:15 29.19181 71.29318 38687 ft 479 kts 41°
2026-04-28 09:16 29.23647 71.34913 38686 ft 479 kts 41°
2026-04-28 09:16 29.28141 71.40549 38690 ft 479 kts 41°
2026-04-28 09:17 29.32619 71.46224 38676 ft 480 kts 41°
2026-04-28 09:17 29.37051 71.51951 38677 ft 480 kts 42°
2026-04-28 09:18 29.41484 71.57676 38686 ft 480 kts 41°
2026-04-28 09:18 29.45919 71.63400 38678 ft 480 kts 42°
2026-04-28 09:19 29.50357 71.69135 38685 ft 480 kts 42°
2026-04-28 09:19 29.54791 71.74873 38678 ft 481 kts 42°
2026-04-28 09:20 29.59210 71.80598 38678 ft 481 kts 42°
2026-04-28 09:20 29.63645 71.86354 38675 ft 481 kts 42°
2026-04-28 09:21 29.68086 71.92126 38671 ft 481 kts 42°
2026-04-28 09:21 29.72495 71.97863 38666 ft 482 kts 42°
2026-04-28 09:22 29.76930 72.03645 38660 ft 482 kts 43°
2026-04-28 09:22 29.81368 72.09438 38657 ft 482 kts 43°
2026-04-28 09:23 29.85803 72.15234 38660 ft 482 kts 43°
2026-04-28 09:23 29.90215 72.21010 38660 ft 482 kts 43°
2026-04-28 09:24 29.94490 72.26615 38654 ft 482 kts 43°
2026-04-28 09:24 29.98726 72.32176 38653 ft 482 kts 43°
2026-04-28 09:25 30.03165 72.38013 38650 ft 482 kts 43°
2026-04-28 09:25 30.07584 72.43830 38656 ft 482 kts 43°
2026-04-28 09:26 30.12003 72.49657 38654 ft 482 kts 43°
2026-04-28 09:26 30.16419 72.55489 38655 ft 482 kts 43°
2026-04-28 09:27 30.23564 72.63491 38651 ft 473 kts 32°
2026-04-28 09:27 30.28739 72.68204 38652 ft 474 kts 32°
2026-04-28 09:28 30.33911 72.72940 38657 ft 474 kts 33°
2026-04-28 09:28 30.39082 72.77677 38658 ft 475 kts 33°
2026-04-28 09:29 30.44271 72.82436 38658 ft 476 kts 33°
2026-04-28 09:29 30.49432 72.87175 38660 ft 477 kts 33°
2026-04-28 09:30 30.54634 72.91958 38663 ft 477 kts 33°
2026-04-28 09:30 30.59842 72.96754 38664 ft 478 kts 33°
2026-04-28 09:31 30.65061 73.01567 38663 ft 479 kts 33°
2026-04-28 09:31 30.70253 73.06361 38666 ft 480 kts 33°
2026-04-28 09:32 30.75477 73.11193 38668 ft 481 kts 33°
2026-04-28 09:32 30.80714 73.16043 38670 ft 481 kts 33°
2026-04-28 09:33 30.85959 73.20907 38672 ft 482 kts 33°
2026-04-28 09:33 30.91205 73.25779 38671 ft 483 kts 33°
2026-04-28 09:34 30.95576 73.29845 38685 ft 483 kts 33°
2026-04-28 09:34 31.00833 73.34741 38682 ft 484 kts 33°
2026-04-28 09:35 31.06097 73.39650 38679 ft 484 kts 33°
2026-04-28 09:35 31.11361 73.44568 38680 ft 484 kts 33°
2026-04-28 09:36 31.16595 73.49466 38286 ft 480 kts 34°
2026-04-28 09:36 31.19198 73.51903 37759 ft 477 kts 34°
2026-04-28 09:36 31.21747 73.54291 37273 ft 473 kts 34°
2026-04-28 09:37 31.24299 73.56684 36768 ft 468 kts 34°
2026-04-28 09:37 31.26828 73.59057 36281 ft 464 kts 35°
2026-04-28 09:37 31.29339 73.61414 35804 ft 460 kts 35°
2026-04-28 09:37 31.31824 73.63747 35330 ft 457 kts 36°
2026-04-28 09:38 31.34295 73.66068 34874 ft 453 kts 36°
2026-04-28 09:38 31.36753 73.68379 34424 ft 450 kts 36°
2026-04-28 09:38 31.39179 73.70661 33975 ft 447 kts 37°
2026-04-28 09:38 31.41598 73.72937 33508 ft 444 kts 37°
2026-04-28 09:39 31.43994 73.75194 33014 ft 440 kts 37°
2026-04-28 09:39 31.46369 73.77435 32527 ft 437 kts 37°
2026-04-28 09:39 31.48700 73.79636 32069 ft 433 kts 37°
2026-04-28 09:39 31.51038 73.81844 31608 ft 430 kts 37°
2026-04-28 09:40 31.53361 73.84041 31154 ft 427 kts 37°
2026-04-28 09:40 31.55671 73.86225 30691 ft 424 kts 38°
2026-04-28 09:40 31.57954 73.88386 30260 ft 421 kts 38°
2026-04-28 09:40 31.60234 73.90545 29824 ft 418 kts 38°
2026-04-28 09:41 31.62484 73.92677 29349 ft 415 kts 38°
2026-04-28 09:41 31.64725 73.94803 28878 ft 411 kts 38°
2026-04-28 09:41 31.66936 73.96903 28439 ft 407 kts 38°
2026-04-28 09:41 31.69262 73.98763 27962 ft 401 kts 24°
2026-04-28 09:42 31.71861 73.99845 27479 ft 394 kts
2026-04-28 09:42 31.74554 74.00155 27034 ft 387 kts 359°
2026-04-28 09:42 31.77239 74.00298 26607 ft 384 kts 359°
2026-04-28 09:42 31.79893 74.00452 26191 ft 380 kts 359°
2026-04-28 09:43 31.82527 74.00609 25780 ft 377 kts 359°
2026-04-28 09:43 31.85133 74.00762 25384 ft 374 kts 359°
2026-04-28 09:43 31.87724 74.00914 24964 ft 371 kts 359°
2026-04-28 09:43 31.90290 74.01064 24582 ft 368 kts 359°
2026-04-28 09:44 31.92815 74.00926 24173 ft 359 kts 343°
2026-04-28 09:44 31.95128 73.99972 23762 ft 349 kts 327°
2026-04-28 09:44 31.97075 73.98399 23379 ft 342 kts 318°
2026-04-28 09:44 31.98959 73.96704 22954 ft 339 kts 319°
2026-04-28 09:45 32.00830 73.95032 22519 ft 337 kts 319°
2026-04-28 09:45 32.02690 73.93373 22087 ft 334 kts 319°
2026-04-28 09:45 32.04541 73.91721 21653 ft 332 kts 319°
2026-04-28 09:45 32.06374 73.90085 21234 ft 329 kts 318°
2026-04-28 09:46 32.08194 73.88458 20831 ft 327 kts 318°
2026-04-28 09:46 32.10000 73.86843 20422 ft 325 kts 318°
2026-04-28 09:46 32.11794 73.85237 20017 ft 322 kts 318°
2026-04-28 09:46 32.13575 73.83642 19641 ft 320 kts 318°
2026-04-28 09:47 32.15342 73.82059 19263 ft 318 kts 318°
2026-04-28 09:47 32.17094 73.80489 18880 ft 316 kts 318°
2026-04-28 09:47 32.18839 73.78925 18507 ft 314 kts 318°
2026-04-28 09:47 32.20569 73.77373 18145 ft 311 kts 318°
2026-04-28 09:48 32.22287 73.75831 17752 ft 309 kts 318°
2026-04-28 09:48 32.23993 73.74299 17346 ft 307 kts 318°
2026-04-28 09:48 32.25691 73.72772 16943 ft 305 kts 318°
2026-04-28 09:48 32.27372 73.71261 16560 ft 302 kts 318°
2026-04-28 09:49 32.29040 73.69760 16164 ft 300 kts 318°
2026-04-28 09:49 32.30693 73.68273 15779 ft 299 kts 318°
2026-04-28 09:49 32.32325 73.66802 16008 ft 297 kts 320°
2026-04-28 09:49 32.33950 73.65339 15045 ft 294 kts 319°
2026-04-28 09:50 32.35573 73.63880 14654 ft 293 kts 319°
2026-04-28 09:50 32.37193 73.62419 14271 ft 291 kts 319°
2026-04-28 09:50 32.38801 73.60969 13912 ft 290 kts 319°
2026-04-28 09:50 32.40396 73.59528 13557 ft 288 kts 319°
2026-04-28 09:51 32.41983 73.58094 13155 ft 287 kts 319°
2026-04-28 09:51 32.43564 73.56666 12754 ft 285 kts 319°
2026-04-28 09:51 32.45141 73.55240 12359 ft 284 kts 319°
2026-04-28 09:51 32.46707 73.53823 11951 ft 283 kts 319°
2026-04-28 09:52 32.48273 73.52405 11568 ft 282 kts 319°
2026-04-28 09:52 32.49828 73.50998 11187 ft 281 kts 320°
2026-04-28 09:52 32.51362 73.49609 10809 ft 280 kts 320°
2026-04-28 09:52 32.52906 73.48210 10477 ft 278 kts 320°
2026-04-28 09:53 32.54440 73.46821 10142 ft 277 kts 320°
2026-04-28 09:53 32.55970 73.45433 9789 ft 276 kts 320°
2026-04-28 09:53 32.57495 73.44050 9418 ft 276 kts 320°
2026-04-28 09:53 32.59014 73.42669 9042 ft 275 kts 320°
2026-04-28 09:54 32.60535 73.41286 8700 ft 275 kts 320°
2026-04-28 09:54 32.62048 73.39913 8361 ft 273 kts 320°
2026-04-28 09:54 32.63558 73.38542 7976 ft 273 kts 321°
2026-04-28 09:54 32.65064 73.37173 7647 ft 272 kts 321°
2026-04-28 09:55 32.66563 73.35810 7303 ft 271 kts 321°
2026-04-28 09:55 32.68057 73.34450 6925 ft 271 kts 321°
2026-04-28 09:55 32.69554 73.33086 6542 ft 271 kts 321°
2026-04-28 09:55 32.71052 73.31718 6187 ft 271 kts 321°
2026-04-28 09:56 32.72552 73.30352 5817 ft 272 kts 322°
2026-04-28 09:56 32.74051 73.28986 5459 ft 271 kts 322°
2026-04-28 09:56 32.75546 73.27635 5099 ft 270 kts 325°
2026-04-28 09:56 32.77217 73.26624 4729 ft 270 kts 342°
2026-04-28 09:57 32.79023 73.26197 4398 ft 268 kts 353°
2026-04-28 09:57 32.80874 73.25911 4064 ft 268 kts 352°
2026-04-28 09:57 32.82709 73.25611 3767 ft 263 kts 352°
2026-04-28 09:57 32.84526 73.25307 3680 ft 267 kts 352°
2026-04-28 09:58 32.86374 73.24998 3649 ft 267 kts 352°
2026-04-28 09:58 32.88204 73.24693 3664 ft 266 kts 352°
2026-04-28 09:58 32.90040 73.24389 3671 ft 266 kts 352°
2026-04-28 09:58 32.91877 73.24086 3657 ft 266 kts 352°
2026-04-28 09:59 32.93711 73.23785 3662 ft 266 kts 352°
2026-04-28 09:59 32.95549 73.23482 3662 ft 266 kts 352°
2026-04-28 09:59 32.97357 73.23181 3676 ft 266 kts 352°
2026-04-28 09:59 32.99193 73.22873 3658 ft 266 kts 352°
2026-04-28 10:00 33.01022 73.22566 3669 ft 266 kts 352°
2026-04-28 10:00 33.02851 73.22259 3659 ft 265 kts 352°
2026-04-28 10:00 33.04681 73.21953 3668 ft 265 kts 352°
2026-04-28 10:00 33.06508 73.21652 3675 ft 264 kts 352°
2026-04-28 10:01 33.08335 73.21348 3664 ft 265 kts 352°
2026-04-28 10:01 33.10160 73.21044 3669 ft 264 kts 353°
2026-04-28 10:01 33.11986 73.20739 3663 ft 265 kts 353°
2026-04-28 10:01 33.13805 73.20438 3683 ft 264 kts 353°
2026-04-28 10:02 33.15630 73.20138 3672 ft 265 kts 352°
2026-04-28 10:02 33.17460 73.19831 3669 ft 265 kts 352°
2026-04-28 10:02 33.19287 73.19524 3665 ft 265 kts 352°
2026-04-28 10:02 33.21074 73.19225 3676 ft 265 kts 352°
2026-04-28 10:03 33.22902 73.18917 3676 ft 266 kts 352°
2026-04-28 10:03 33.24739 73.18608 3676 ft 266 kts 352°
2026-04-28 10:03 33.26574 73.18300 3674 ft 266 kts 352°
2026-04-28 10:03 33.28384 73.17996 3669 ft 267 kts 352°
2026-04-28 10:04 33.30224 73.17689 3675 ft 267 kts 352°
2026-04-28 10:04 33.32066 73.17380 3677 ft 267 kts 352°
2026-04-28 10:04 33.33908 73.17071 3678 ft 267 kts 352°
2026-04-28 10:04 33.35750 73.16763 3691 ft 267 kts 352°
2026-04-28 10:05 33.37593 73.16454 3681 ft 268 kts 352°
2026-04-28 10:05 33.38626 73.16280 3676 ft 267 kts 352°
2026-04-28 10:05 33.40471 73.15969 3692 ft 269 kts 352°
2026-04-28 10:05 33.42323 73.15676 3688 ft 267 kts 353°
2026-04-28 10:06 33.44167 73.15428 3689 ft 266 kts 353°
2026-04-28 10:06 33.45996 73.15194 3697 ft 269 kts 354°
2026-04-28 10:06 33.47865 73.14879 3682 ft 267 kts 342°
2026-04-28 10:06 33.49436 73.13812 3683 ft 262 kts 314°
2026-04-28 10:07 33.50365 73.12047 3681 ft 243 kts 284°
2026-04-28 10:07 33.50653 73.10129 3696 ft 225 kts 278°
2026-04-28 10:07 33.50909 73.08351 3695 ft 209 kts 279°
2026-04-28 10:07 33.51163 73.06700 3697 ft 194 kts 279°
2026-04-28 10:08 33.51404 73.05186 3708 ft 176 kts 279°
2026-04-28 10:08 33.51623 73.03816 3704 ft 170 kts 280°
2026-04-28 10:08 33.51851 73.02399 3694 ft 172 kts 280°
2026-04-28 10:08 33.52074 73.01001 3710 ft 170 kts 280°
2026-04-28 10:09 33.52297 72.99607 3694 ft 171 kts 280°
2026-04-28 10:09 33.52541 72.98211 3697 ft 171 kts 282°
2026-04-28 10:09 33.52781 72.96817 3704 ft 171 kts 281°
2026-04-28 10:09 33.53002 72.95411 3531 ft 168 kts 281°
2026-04-28 10:10 33.53207 72.94097 3328 ft 153 kts 281°
2026-04-28 10:10 33.53397 72.92880 3145 ft 146 kts 281°
2026-04-28 10:10 33.53585 72.91677 2965 ft 147 kts 282°
2026-04-28 10:10 33.53770 72.90481 2771 ft 145 kts 282°
2026-04-28 10:11 33.53955 72.89300 2585 ft 146 kts 283°
2026-04-28 10:11 33.54136 72.88139 2409 ft 148 kts 283°
2026-04-28 10:11 33.54326 72.86913 2218 ft 150 kts 284°
2026-04-28 10:11 33.54521 72.85659 1999 ft 154 kts 284°
2026-04-28 10:12 33.54715 72.84405 1799 ft 152 kts 284°
2026-04-28 10:12 33.54885 72.83366 1764 ft 72 kts 280°
2026-04-28 10:12 33.54940 72.82989 1764 ft 44 kts 280°
2026-04-28 10:12 33.55001 72.82613 1760 ft 47 kts 275°
2026-04-28 10:13 33.55106 72.82456 1766 ft 18 kts 16°
2026-04-28 10:13 33.55228 72.82486 1770 ft 19 kts 10°
2026-04-28 10:13 33.55376 72.82519 1770 ft 24 kts
2026-04-28 10:13 33.55470 72.82611 1771 ft 19 kts 99°
2026-04-28 10:14 33.55471 72.82769 1770 ft 14 kts 96°
2026-04-28 10:14 33.55463 72.82861 1770 ft 0 kts 92°
2026-04-28 10:14 33.55448 72.82888 1770 ft 8 kts 141°
2026-04-28 10:14 33.55430 72.82903 1770 ft 0 kts 144°